Hourly Weather Roundup
Issued by NWS Central Illinois

Home | Current Version | Previous Version | Text Only | Print | Product List | Glossary On
Versions: 1 2 3 4 5 6 7 8 9 10 11 12 13 14 15 16 17 18 19 20 21 22 23 24 25 26 27 28 29 30 31 32 33 34 35 36 37 38 39 40 41 42 43 44 45 46 47 48 49 50
000
NZUS43 KILX 062210
HWRILX

AREA WEATHER ROUNDUP
NATIONAL WEATHER SERVICE, LINCOLN IL
500 PM CDT FRI MAY 06 2016


CITY           SKY/WX    TMP DP  RH WIND       PRES   REMARKS
BLOOMINGTON    SUNNY     81  47  30 W9G20     29.90F HX  80
CHAMPAIGN      SUNNY     79  42  26 W12G23    29.90F
DANVILLE       MOSUNNY   75  41  29 SW8       29.88F
DECATUR        SUNNY     79  44  28 W14       29.91F
EFFINGHAM      MOSUNNY   74  49  41 SW7       29.96F
FLORA          MOSUNNY   74  46  36 NW7       29.96F
GALESBURG      SUNNY     82  48  29 SW16      29.88F HX  81
JACKSONVILLE   SUNNY     82  44  25 W12       29.92F HX  80
LACON          SUNNY     83  44  24 W9        29.85F HX  81
LAWRENCEVILLE  PTSUNNY   74  44  34 NW12      29.95F
LITCHFIELD     SUNNY     76  43  30 W15       29.95F
$$


CITY           SKY/WX    TMP DP  RH WIND       PRES   REMARKS
LINCOLN        SUNNY     82  47  28 W8        29.89F HX  81
MACOMB         SUNNY     83  44  25 W14       29.92F HX  81
MATTOON        MOSUNNY   73  42  32 SW8G17    29.93F
MT CARMEL AP   MOSUNNY   73  39  29 W9        29.95F
OLNEY-NOBLE AP PTSUNNY   72  50  46 NW9       29.96F
PARIS          MOSUNNY   73  45  36 W3        29.93F
PEORIA         SUNNY     83  43  24 W9        29.88F HX  81
PONTIAC        PTSUNNY   85  44  24 W16G25    29.85F HX  82
RANTOUL        SUNNY     82  44  26 W12G22    29.88F HX  80
ROBINSON       PTSUNNY   71  45  39 NW7       29.95F
SPRINGFIELD    PTSUNNY   84  43  23 W12       29.91F HX  81
TAYLORVILLE    SUNNY     79  44  29 W9G20     29.92F
$$

...REGIONAL REPORTS...


CITY           SKY/WX    TMP DP  RH WIND       PRES   REMARKS
CHICAGO O`HARE MOSUNNY   81  49  32 W9        29.80F HX  80
KANKAKEE       MOSUNNY  N/A N/A N/A W10G17    29.84F
MOLINE         SUNNY     85  45  24 W20       29.84F HX  82
MOUNT STERLING SUNNY     80  47  31 W12G17    29.92F
MOUNT VERNON   CLOUDY    73  46  38 W6        29.98F
PITTSFIELD     SUNNY     81  47  30 W9G16     29.94F HX  80
QUINCY         SUNNY     81  48  31 W12       29.93F HX  80
ROCKFORD       SUNNY     83  49  30 W13       29.84F HX  81
$$


CITY           SKY/WX    TMP DP  RH WIND       PRES   REMARKS
BURLINGTON     SUNNY     83  48  29 W13G20    29.89F HX  81
CEDAR RAPIDS   SUNNY     85  47  26 SW20G30   29.84F HX  82
DES MOINES     MOSUNNY   85  42  22 SW20G28   29.88F HX  82
KIRKSVILLE     SUNNY     81  48  31 SW13      29.95F HX  80
OTTUMWA        SUNNY     83  49  30 W16       29.89F HX  81
ST LOUIS       MOSUNNY   81  45  28 W13       29.96F HX  80
$$


CITY           SKY/WX    TMP DP  RH WIND       PRES   REMARKS
TERRE HAUTE    MOSUNNY   73  41  31 W10       29.92F
EVANSVILLE     SUNNY     72  42  34 W8        29.96F
INDIANAPOLIS   MOSUNNY   71  40  32 W10       29.90F
LAFAYETTE      SUNNY     73  41  31 W9        29.88F
MADISON        MOSUNNY   84  48  28 VRB6      29.77F HX  82
MILWAUKEE      SUNNY     85  43  22 W14G21    29.77F HX  82
$$





USA.gov is the U.S. government's official web portal to all federal, state and local government web resources and services.